"startDT [UTC]","vpos","CH4 [ppm]","stdev(CH4) [ppm]","CO2 [ppm]","stdev(CO2) [ppm]","H2O_reported [%]","stdev(H2O_reported)","CavityPressure [torr]","CavityTemp [C]","OutletValve","CH4_dry [ppm]","CO2_dry [ppm]","DasTemp [C]","EtalonTemp [C]","WarmBoxTemp [C]","MPVPosition","T_ECpre [C]","T_EC1 [C]","T_EC2 [C]","p_inlet [hPa]","p_in [hPa]","p_out [hPa]","T_inlet [C]","RH_inlet [%]","dwpt_inlet [C]","T_vent [C]","RH_vent [%]","dwpt_vent [C]","flow_vent [l min-1]","flow_inlet [l min-1]","dwpt_sample [C]","T_room [C]"
2015-08-31 00:00:00,0.0,1.92505,0.00060,386.167,0.110,0.8584,0.0080,139.998,45.000,31089.11368,1.94179,390.264,34.427,45.068,45.000,0.00,0.10,-272.75,-272.80,-13,498,-937,23.3,23.1,1.1,23.1,24.0,1.4,5.73,1.91,1.6,27.5
2015-08-31 00:01:00,0.0,1.92495,0.00043,386.325,0.056,0.8474,0.0056,140.000,45.000,31087.98396,1.94141,390.371,34.431,45.068,45.000,0.00,0.10,-272.75,-272.80,-13,498,-937,23.3,22.9,0.9,23.1,23.7,1.2,5.73,2.03,1.6,27.5
2015-08-31 00:02:00,0.0,1.92471,0.00043,386.168,0.090,0.8620,0.0085,140.000,45.000,31090.28895,1.94148,390.281,34.437,45.068,45.000,0.00,0.10,-272.74,-272.80,-13,498,-937,23.3,23.2,1.1,23.1,24.0,1.4,5.73,2.07,1.6,27.5
2015-08-31 00:03:00,0.0,1.92456,0.00041,386.172,0.109,0.8595,0.0128,139.998,45.000,31088.48470,1.94132,390.276,34.437,45.068,45.000,0.00,0.10,-272.74,-272.81,-13,498,-937,23.3,23.2,1.1,23.1,24.0,1.4,5.73,2.00,1.6,27.5
2015-08-31 00:04:00,0.0,1.92462,0.00042,386.043,0.104,0.8718,0.0109,139.999,45.000,31087.49595,1.94159,390.205,34.438,45.068,45.000,0.00,0.10,-272.74,-272.81,-13,498,-937,23.3,23.5,1.3,23.1,24.4,1.6,5.73,1.87,1.6,27.5
2015-08-31 00:05:00,0.0,1.92460,0.00049,386.127,0.056,0.8591,0.0053,140.000,45.000,31088.44834,1.94133,390.227,34.435,45.068,45.000,0.00,0.10,-272.73,-272.80,-13,498,-937,23.3,23.1,1.1,23.1,24.0,1.4,5.73,1.83,1.6,27.5
2015-08-31 00:06:00,0.0,1.92445,0.00049,386.072,0.084,0.8630,0.0090,140.000,45.000,31089.93070,1.94126,390.189,34.430,45.068,45.000,0.00,0.10,-272.74,-272.80,-13,498,-937,23.3,23.3,1.1,23.0,24.1,1.4,5.73,1.90,1.6,27.5
2015-08-31 00:07:00,0.0,1.92461,0.00038,386.244,0.125,0.8455,0.0142,139.999,45.000,31086.62517,1.94106,390.279,34.432,45.068,45.000,0.00,0.10,-272.75,-272.80,-13,498,-937,23.3,22.7,0.8,23.1,23.8,1.3,5.73,2.02,1.6,27.5
2015-08-31 00:08:00,0.0,1.92506,0.00042,386.291,0.092,0.8401,0.0107,140.000,45.000,31086.23101,1.94135,390.300,34.397,45.068,45.000,0.00,0.10,-272.74,-272.80,-13,498,-937,23.3,22.7,0.8,23.1,23.4,1.0,5.73,2.07,1.6,27.5
2015-08-31 00:09:00,0.0,1.92504,0.00042,385.964,0.108,0.8721,0.0097,140.002,45.000,31086.48081,1.94204,390.128,34.374,45.068,45.000,0.00,0.10,-272.74,-272.80,-13,498,-937,23.3,23.6,1.3,23.0,24.2,1.5,5.73,2.01,1.6,27.5
2015-08-31 00:10:00,0.0,1.92498,0.00043,385.927,0.087,0.8781,0.0071,139.998,45.000,31086.24916,1.94207,390.118,34.372,45.068,45.000,0.00,0.10,-272.74,-272.81,-13,498,-937,23.3,23.7,1.4,23.1,24.5,1.7,5.73,1.90,1.6,27.5
2015-08-31 00:11:00,0.0,1.92526,0.00043,385.949,0.085,0.8768,0.0086,139.999,45.000,31084.54864,1.94232,390.136,34.373,45.068,45.000,0.00,0.10,-272.74,-272.81,-13,498,-937,23.3,23.6,1.3,23.0,24.5,1.6,5.73,1.83,1.6,27.5
2015-08-31 00:12:00,0.0,1.92559,0.00040,385.798,0.052,0.8910,0.0037,139.998,45.000,31084.53326,1.94296,390.049,34.374,45.068,45.000,0.00,0.10,-272.74,-272.79,-13,498,-937,23.3,24.0,1.6,23.0,24.8,1.8,5.73,1.87,1.6,27.5
2015-08-31 00:13:00,0.0,1.92519,0.00044,386.030,0.091,0.8723,0.0101,140.000,45.000,31083.51734,1.94218,390.193,34.373,45.068,45.000,0.00,0.10,-272.74,-272.80,-13,498,-937,23.3,23.5,1.3,23.1,24.5,1.7,5.73,1.99,1.6,27.5
2015-08-31 00:14:00,0.0,1.92555,0.00028,386.181,0.120,0.8581,0.0123,140.001,45.000,31082.19321,1.94229,390.276,34.374,45.068,45.000,0.00,0.10,-272.75,-272.81,-13,498,-937,23.3,23.1,1.0,23.0,24.1,1.4,5.73,2.08,1.6,27.5
2015-08-31 00:15:00,0.0,1.92586,0.00041,386.291,0.046,0.8429,0.0041,139.999,45.000,31083.75038,1.94224,390.314,34.393,45.068,45.000,0.00,0.32,-270.82,-270.93,-13,498,-937,23.2,22.8,0.8,23.0,23.6,1.1,5.42,2.08,-5.0,27.5
2015-08-31 00:16:00,0.0,1.92625,0.00045,386.199,0.069,0.8559,0.0086,140.000,45.000,31084.45658,1.94289,390.282,34.401,45.068,45.000,0.00,0.10,-272.74,-272.81,-12,498,-937,23.2,23.2,1.0,23.0,23.8,1.3,5.73,1.87,1.6,27.5
2015-08-31 00:17:00,0.0,1.92664,0.00036,386.180,0.066,0.8550,0.0083,140.003,45.001,31086.01652,1.94329,390.263,34.383,45.068,45.001,0.00,0.10,-272.74,-272.81,-13,498,-937,23.2,23.2,1.1,23.0,23.9,1.3,5.73,1.81,1.6,27.4
2015-08-31 00:18:00,0.0,1.92632,0.00041,386.165,0.064,0.8567,0.0056,140.000,45.000,31087.12974,1.94306,390.251,34.416,45.069,45.001,0.00,0.10,-272.74,-272.80,-13,497,-937,23.2,23.3,1.1,23.0,24.0,1.4,5.73,1.93,1.6,27.5
2015-08-31 00:19:00,0.0,1.92644,0.00035,386.275,0.046,0.8398,0.0077,139.999,45.000,31088.39590,1.94276,390.284,34.434,45.068,45.000,0.00,0.10,-272.74,-272.80,-13,497,-937,23.2,22.9,0.8,23.0,23.7,1.2,5.73,2.07,1.6,27.5
2015-08-31 00:20:00,0.0,1.92675,0.00026,386.195,0.041,0.8498,0.0039,139.998,45.000,31088.51035,1.94332,390.250,34.438,45.068,45.000,0.00,0.10,-272.75,-272.81,-13,498,-937,23.2,23.1,1.0,23.0,23.7,1.2,5.73,2.05,1.6,27.5
2015-08-31 00:21:00,0.0,1.92681,0.00038,386.143,0.087,0.8565,0.0090,139.998,45.000,31089.13645,1.94346,390.231,34.442,45.068,45.000,0.00,0.10,-272.74,-272.81,-13,498,-937,23.2,23.3,1.1,23.0,23.9,1.3,5.73,1.94,1.6,27.5
2015-08-31 00:22:00,0.0,1.92702,0.00038,386.151,0.068,0.8547,0.0069,139.998,45.000,31088.76678,1.94367,390.230,34.436,45.068,45.000,0.00,0.10,-272.73,-272.80,-13,498,-937,23.2,23.2,1.1,23.0,24.0,1.3,5.73,1.84,1.6,27.5
2015-08-31 00:23:00,0.0,1.92668,0.00034,386.106,0.046,0.8582,0.0080,139.998,45.000,31088.30497,1.94339,390.201,34.435,45.068,45.000,0.00,0.10,-272.74,-272.81,-13,498,-937,23.2,23.2,1.1,23.0,24.0,1.4,5.73,1.85,1.6,27.5
2015-08-31 00:24:00,0.0,1.92645,0.00037,386.155,0.065,0.8530,0.0053,140.001,45.000,31088.24466,1.94312,390.224,34.395,45.068,45.000,0.00,0.10,-272.75,-272.81,-13,498,-937,23.2,23.1,1.0,23.0,24.0,1.3,5.73,1.95,1.5,27.5
2015-08-31 00:25:00,0.0,1.92647,0.00031,386.143,0.057,0.8555,0.0062,139.998,45.000,31087.92758,1.94312,390.228,34.381,45.068,45.000,0.00,0.10,-272.75,-272.80,-13,498,-937,23.2,23.2,1.0,23.0,23.9,1.3,5.73,2.06,1.6,27.5
2015-08-31 00:26:00,0.0,1.92612,0.00045,386.090,0.051,0.8623,0.0057,139.998,45.000,31089.37140,1.94295,390.205,34.385,45.068,45.000,0.00,0.10,-272.74,-272.80,-13,498,-937,23.2,23.4,1.2,23.0,24.1,1.4,5.73,2.06,1.6,27.5
2015-08-31 00:27:00,0.0,1.92614,0.00043,386.125,0.045,0.8547,0.0037,139.999,45.000,31088.41072,1.94275,390.204,34.384,45.068,45.000,0.00,0.10,-272.74,-272.81,-13,498,-937,23.2,23.2,1.0,23.0,24.0,1.4,5.73,1.94,1.5,27.5
2015-08-31 00:28:00,0.0,1.92625,0.00039,386.035,0.059,0.8615,0.0058,140.000,45.000,31088.69851,1.94305,390.146,34.386,45.068,45.000,0.00,0.10,-272.74,-272.81,-13,498,-937,23.2,23.4,1.1,23.0,24.1,1.4,5.73,1.84,1.6,27.5
2015-08-31 00:29:00,0.0,1.92671,0.00047,386.002,0.050,0.8666,0.0048,140.001,45.000,31086.90111,1.94356,390.137,34.376,45.068,45.000,0.00,0.10,-272.73,-272.80,-13,498,-937,23.2,23.5,1.2,23.0,24.3,1.5,5.73,1.85,1.6,27.5
2015-08-31 00:30:00,0.0,1.92678,0.00036,386.021,0.092,0.8660,0.0107,140.002,45.000,31087.10117,1.94369,390.153,34.375,45.068,45.000,0.00,0.10,-272.74,-272.81,-13,498,-937,23.2,23.5,1.2,23.0,24.3,1.5,5.73,1.94,1.6,27.5
2015-08-31 00:31:00,0.0,1.92670,0.00046,386.010,0.072,0.8716,0.0068,139.998,45.000,31085.31071,1.94370,390.170,34.379,45.068,45.000,0.00,0.10,-272.75,-272.81,-13,498,-937,23.2,23.6,1.3,23.0,24.5,1.6,5.73,2.05,1.5,27.5
2015-08-31 00:32:00,0.0,1.92672,0.00048,386.179,0.040,0.8545,0.0053,139.999,45.000,31083.56626,1.94337,390.255,34.417,45.068,45.000,0.00,0.10,-272.74,-272.80,-13,498,-937,23.2,23.2,1.0,23.0,24.0,1.3,5.73,2.06,1.5,27.5
2015-08-31 00:33:00,0.0,1.92718,0.00046,386.155,0.047,0.8612,0.0057,139.997,45.000,31081.45691,1.94391,390.266,34.417,45.068,45.000,0.00,0.10,-272.74,-272.81,-13,498,-937,23.2,23.4,1.2,23.0,24.2,1.4,5.73,1.94,1.5,27.5
2015-08-31 00:34:00,0.0,1.92740,0.00050,386.091,0.049,0.8659,0.0041,139.999,45.000,31082.52680,1.94432,390.223,34.427,45.068,45.000,0.00,0.10,-272.75,-272.81,-13,498,-937,23.2,23.5,1.2,23.0,24.3,1.5,5.73,1.83,1.5,27.5
2015-08-31 00:35:00,0.0,1.92724,0.00039,386.147,0.042,0.8617,0.0060,140.000,45.000,31083.72436,1.94400,390.260,34.399,45.068,45.000,0.00,0.10,-272.74,-272.80,-13,498,-937,23.2,23.5,1.2,23.0,24.2,1.5,5.73,1.85,1.5,27.5
2015-08-31 00:36:00,0.0,1.92702,0.00045,386.126,0.054,0.8639,0.0057,139.999,45.000,31083.90476,1.94386,390.251,34.397,45.068,45.000,0.00,0.10,-272.74,-272.80,-13,498,-937,23.2,23.5,1.2,23.0,24.3,1.5,5.73,1.96,1.5,27.5
2015-08-31 00:37:00,0.0,1.92755,0.00042,386.041,0.072,0.8778,0.0062,140.001,45.000,31082.97122,1.94467,390.232,34.398,45.068,45.000,0.00,0.10,-272.75,-272.80,-13,497,-937,23.2,23.8,1.4,23.0,24.6,1.7,5.73,2.06,1.5,27.5
2015-08-31 00:38:00,0.0,1.92744,0.00036,386.120,0.062,0.8702,0.0058,140.001,45.000,31082.71383,1.94440,390.275,34.428,45.068,45.000,0.00,0.10,-272.74,-272.80,-13,498,-937,23.2,23.7,1.3,23.0,24.4,1.6,5.73,2.05,1.5,27.5
2015-08-31 00:39:00,0.0,1.92715,0.00043,386.167,0.079,0.8616,0.0102,139.999,45.000,31083.93586,1.94399,390.278,34.443,45.068,45.000,0.00,0.10,-272.74,-272.80,-13,498,-937,23.2,23.4,1.2,23.0,24.3,1.5,5.73,1.93,1.5,27.5
2015-08-31 00:40:00,0.0,1.92751,0.00042,386.150,0.033,0.8641,0.0034,140.000,45.000,31084.08121,1.94432,390.276,34.455,45.068,45.000,0.00,0.10,-272.74,-272.80,-13,498,-937,23.2,23.5,1.2,23.0,24.3,1.5,5.73,1.83,1.5,27.5
2015-08-31 00:41:00,0.0,1.92769,0.00027,386.111,0.041,0.8684,0.0045,140.002,45.000,31084.93368,1.94463,390.256,34.452,45.068,45.000,0.00,0.10,-272.74,-272.81,-13,498,-937,23.1,23.7,1.2,23.0,24.4,1.5,5.73,1.85,1.5,27.5
2015-08-31 00:42:00,0.0,1.92793,0.00045,386.113,0.031,0.8674,0.0033,140.000,45.000,31084.16129,1.94481,390.253,34.430,45.068,45.000,0.00,0.10,-272.74,-272.80,-13,498,-937,23.1,23.7,1.3,23.0,24.4,1.6,5.73,1.98,1.5,27.5
2015-08-31 00:43:00,0.0,1.92837,0.00036,386.103,0.118,0.8681,0.0124,139.999,45.000,31083.32607,1.94530,390.248,34.402,45.068,45.000,0.00,0.10,-272.74,-272.80,-12,498,-937,23.1,23.7,1.3,23.0,24.3,1.5,5.73,2.07,1.5,27.5
2015-08-31 00:44:00,0.0,1.92833,0.00049,386.035,0.054,0.8718,0.0069,139.999,45.000,31085.65735,1.94532,390.196,34.425,45.068,45.000,0.00,0.10,-272.75,-272.81,-13,498,-937,23.1,23.9,1.4,23.0,24.5,1.6,5.73,2.04,1.5,27.5
2015-08-31 00:45:00,0.0,1.92840,0.00038,386.011,0.067,0.8796,0.0070,140.000,45.000,31084.44304,1.94555,390.210,34.397,45.068,45.000,0.00,0.10,-272.74,-272.81,-13,498,-937,23.1,24.0,1.5,22.9,24.8,1.7,5.73,1.94,1.5,27.4
2015-08-31 00:46:00,0.0,1.92889,0.00049,386.081,0.045,0.8738,0.0066,140.001,45.000,31084.15948,1.94596,390.252,34.411,45.068,45.000,0.00,0.10,-272.74,-272.81,-13,498,-937,23.1,23.9,1.4,22.9,24.6,1.6,5.73,1.84,1.5,27.5
2015-08-31 00:47:00,0.0,1.92878,0.00052,386.032,0.042,0.8806,0.0047,140.000,45.000,31085.03112,1.94594,390.235,34.437,45.068,45.000,0.00,0.10,-272.74,-272.81,-13,498,-937,23.1,24.0,1.5,22.9,24.7,1.7,5.73,1.85,1.5,27.4
2015-08-31 00:48:00,0.0,1.92878,0.00038,386.126,0.040,0.8712,0.0046,139.998,45.000,31084.78262,1.94580,390.285,34.435,45.068,45.000,0.00,0.10,-272.75,-272.80,-13,497,-937,23.1,23.8,1.3,22.9,24.6,1.6,5.73,1.95,1.5,27.4
2015-08-31 00:49:00,0.0,1.92933,0.00034,386.168,0.035,0.8708,0.0046,139.998,45.000,31084.05598,1.94631,390.325,34.400,45.068,45.000,0.00,0.10,-272.74,-272.80,-13,498,-937,23.1,23.8,1.3,22.9,24.5,1.6,5.73,2.05,1.5,27.4
2015-08-31 00:50:00,0.0,1.92967,0.00050,386.167,0.081,0.8741,0.0074,139.997,45.000,31084.59804,1.94674,390.341,34.393,45.068,45.000,0.00,0.10,-272.75,-272.80,-13,498,-937,23.1,23.9,1.4,22.9,24.6,1.6,5.73,2.06,1.5,27.5
2015-08-31 00:51:00,0.0,1.93008,0.00033,386.044,0.067,0.8918,0.0046,140.000,45.000,31083.69507,1.94750,390.303,34.432,45.068,45.000,0.00,0.10,-272.75,-272.81,-13,498,-937,23.1,24.3,1.6,22.9,25.0,1.9,5.73,1.96,1.5,27.4
2015-08-31 00:52:00,0.0,1.92993,0.00035,386.187,0.030,0.8774,0.0020,139.998,45.000,31085.67172,1.94704,390.378,34.440,45.068,45.000,0.00,0.10,-272.74,-272.80,-13,498,-937,23.1,24.0,1.4,22.9,24.8,1.7,5.73,1.85,1.5,27.4
2015-08-31 00:53:00,0.0,1.93010,0.00046,386.125,0.045,0.8877,0.0059,140.000,45.000,31085.75901,1.94742,390.366,34.438,45.068,45.000,0.00,0.10,-272.74,-272.80,-13,497,-937,23.1,24.3,1.6,22.9,24.9,1.8,5.73,1.84,1.5,27.4
2015-08-31 00:54:00,0.0,1.93016,0.00026,386.124,0.026,0.8901,0.0032,139.998,45.000,31084.78250,1.94756,390.377,34.417,45.068,45.000,0.00,0.10,-272.75,-272.81,-13,497,-937,23.1,24.4,1.7,22.9,25.1,1.9,5.73,1.93,1.5,27.4
2015-08-31 00:55:00,0.0,1.93061,0.00039,386.160,0.045,0.8883,0.0046,139.999,45.000,31084.14420,1.94797,390.402,34.374,45.068,45.000,0.00,0.10,-272.74,-272.81,-13,497,-937,23.1,24.3,1.6,22.9,25.0,1.9,5.73,2.05,1.5,27.4
2015-08-31 00:56:00,0.0,1.93093,0.00035,386.157,0.055,0.8913,0.0063,139.998,45.000,31084.34214,1.94834,390.416,34.373,45.068,45.000,0.00,0.10,-272.73,-272.80,-13,497,-937,23.1,24.4,1.7,22.9,25.0,1.9,5.73,2.06,1.5,27.4
2015-08-31 00:57:00,0.0,1.93163,0.00042,386.154,0.035,0.8974,0.0043,139.999,45.000,31084.51451,1.94915,390.441,34.375,45.068,45.000,0.00,0.10,-272.74,-272.81,-13,497,-937,23.1,24.6,1.7,22.9,25.3,2.0,5.73,1.96,1.5,27.4
2015-08-31 00:58:00,0.0,1.93185,0.00039,386.212,0.034,0.8962,0.0032,139.997,45.000,31084.91761,1.94938,390.495,34.375,45.069,45.001,0.00,0.10,-272.74,-272.81,-13,498,-937,23.1,24.6,1.7,22.9,25.3,2.0,5.73,1.84,1.5,27.4
2015-08-31 00:59:00,0.0,1.93243,0.00049,386.339,0.063,0.8893,0.0047,139.998,45.000,31084.93300,1.94981,390.589,34.377,45.069,45.001,0.00,0.10,-272.74,-272.80,-13,498,-937,23.1,24.4,1.6,22.9,25.2,1.9,5.73,1.84,1.5,27.4
2015-08-31 01:00:00,0.0,1.93250,0.00031,386.394,0.023,0.8921,0.0042,139.998,45.000,31086.87627,1.94994,390.660,34.396,45.069,45.000,0.00,0.10,-272.75,-272.81,-13,498,-937,23.0,24.5,1.6,22.9,25.1,1.9,5.73,1.97,1.5,27.4
2015-08-31 01:01:00,0.0,1.93261,0.00033,386.429,0.046,0.8884,0.0064,140.000,45.000,31087.08728,1.94999,390.675,34.434,45.068,45.000,0.00,0.10,-272.75,-272.81,-12,498,-937,23.0,24.5,1.6,22.9,25.1,1.9,5.73,2.08,1.4,27.4
2015-08-31 01:02:00,0.0,1.93322,0.00042,386.407,0.049,0.8959,0.0069,140.000,45.000,31086.71336,1.95071,390.691,34.464,45.068,45.000,0.00,0.10,-272.74,-272.80,-12,497,-937,23.0,24.7,1.8,22.9,25.2,1.9,5.73,2.04,1.5,27.5
2015-08-31 01:03:00,0.0,1.93323,0.00030,386.418,0.073,0.9028,0.0078,140.000,45.000,31085.28987,1.95094,390.734,34.495,45.068,45.000,0.00,0.10,-272.74,-272.80,-12,497,-937,22.9,24.9,1.8,22.9,25.5,2.1,5.73,1.90,1.5,27.4
2015-08-31 01:04:00,0.0,1.93348,0.00041,386.630,0.070,0.8874,0.0073,139.999,45.000,31087.83658,1.95082,390.874,34.493,45.068,44.999,0.00,0.10,-272.75,-272.80,-13,497,-937,22.9,24.5,1.6,22.9,25.2,1.9,5.73,1.83,1.5,27.4
2015-08-31 01:05:00,0.0,1.93382,0.00039,386.690,0.041,0.8824,0.0045,139.997,45.000,31087.70964,1.95108,390.910,34.482,45.068,44.999,0.00,0.10,-272.74,-272.80,-13,497,-937,23.0,24.4,1.5,22.9,24.9,1.7,5.73,1.88,1.4,27.4
2015-08-31 01:06:00,0.0,1.93371,0.00036,386.657,0.031,0.8923,0.0038,139.999,45.000,31089.34675,1.95117,390.926,34.497,45.067,44.999,0.00,0.10,-272.74,-272.80,-13,497,-937,23.0,24.6,1.7,22.9,25.2,1.9,5.73,1.99,1.4,27.4
2015-08-31 01:07:00,0.0,1.93415,0.00037,386.639,0.032,0.8939,0.0035,139.997,45.000,31088.59193,1.95166,390.915,34.503,45.068,44.999,0.00,0.10,-272.75,-272.81,-13,498,-937,22.9,24.7,1.7,22.9,25.3,1.9,5.73,2.08,1.4,27.4
2015-08-31 01:08:00,0.0,1.93438,0.00038,386.530,0.043,0.9055,0.0036,139.998,45.000,31091.35551,1.95212,390.863,34.508,45.068,45.000,0.00,0.10,-272.74,-272.80,-13,498,-937,22.9,25.1,1.9,22.9,25.6,2.1,5.73,2.03,1.4,27.4
2015-08-31 01:09:00,0.0,1.93482,0.00046,386.564,0.077,0.9071,0.0041,140.001,45.000,31089.77932,1.95255,390.903,34.500,45.068,45.000,0.00,0.10,-272.73,-272.80,-13,497,-937,22.9,25.1,1.9,22.9,25.7,2.2,5.73,1.88,1.5,27.4
2015-08-31 01:10:00,0.0,1.93572,0.00037,386.785,0.061,0.8926,0.0058,140.000,45.000,31088.59680,1.95323,391.055,34.489,45.068,45.000,0.00,0.10,-272.74,-272.81,-12,497,-937,22.9,24.7,1.7,22.9,25.4,2.0,5.73,1.82,1.4,27.4
2015-08-31 01:11:00,0.0,1.93574,0.00033,386.853,0.031,0.8880,0.0040,139.999,45.000,31090.32084,1.95312,391.102,34.472,45.068,45.000,0.00,0.10,-272.75,-272.81,-12,497,-937,22.9,24.6,1.6,22.9,25.1,1.9,5.73,1.89,1.4,27.4
2015-08-31 01:12:00,0.0,1.93575,0.00035,386.807,0.043,0.8967,0.0038,140.000,45.000,31090.61387,1.95333,391.100,34.436,45.068,45.000,0.00,0.10,-272.74,-272.80,-13,497,-937,22.9,24.8,1.7,22.9,25.4,2.0,5.73,2.00,1.4,27.4
2015-08-31 01:13:00,0.0,1.93654,0.00033,386.914,0.041,0.8910,0.0029,139.999,45.000,31089.71822,1.95398,391.179,34.388,45.068,45.000,0.00,0.10,-272.74,-272.81,-13,497,-937,22.9,24.6,1.7,22.9,25.2,1.9,5.73,2.06,1.4,27.4
2015-08-31 01:14:00,0.0,1.93691,0.00051,386.941,0.039,0.9000,0.0048,139.996,45.000,31089.76070,1.95454,391.250,34.375,45.068,45.000,0.00,0.10,-272.75,-272.81,-13,497,-937,23.0,24.9,1.8,22.9,25.4,2.0,5.73,2.04,1.4,27.4
2015-08-31 01:15:00,0.0,1.93716,0.00038,387.038,0.055,0.8898,0.0049,139.998,45.000,31087.43129,1.95458,391.297,34.367,45.068,45.000,0.00,0.10,-272.74,-272.81,-13,497,-937,23.0,24.6,1.6,22.9,25.3,1.9,5.73,1.95,1.4,27.4
2015-08-31 01:16:00,0.0,1.93751,0.00027,387.047,0.039,0.8961,0.0069,140.000,45.000,31087.31040,1.95509,391.339,34.349,45.068,45.000,0.00,0.10,-272.74,-272.80,-13,497,-937,23.0,24.8,1.8,22.9,25.3,2.0,5.73,1.86,1.4,27.3
2015-08-31 01:17:00,0.0,1.93797,0.00046,387.018,0.053,0.9013,0.0040,139.999,45.000,31086.64800,1.95566,391.336,34.322,45.069,45.000,0.00,0.10,-272.75,-272.81,-13,498,-937,23.0,24.9,1.8,22.9,25.6,2.1,5.73,1.84,1.4,27.4
2015-08-31 01:18:00,0.0,1.93818,0.00042,387.017,0.031,0.8970,0.0029,139.999,45.000,31086.81278,1.95579,391.313,34.317,45.069,45.001,0.00,0.10,-272.75,-272.81,-13,497,-937,23.0,24.8,1.8,22.8,25.5,2.0,5.73,1.92,1.4,27.3
2015-08-31 01:19:00,0.0,1.93806,0.00054,387.015,0.030,0.9006,0.0045,139.997,45.000,31086.38276,1.95571,391.328,34.335,45.069,45.001,0.00,0.10,-272.74,-272.80,-13,497,-937,22.9,24.9,1.8,22.8,25.5,2.1,5.73,2.02,1.4,27.4
2015-08-31 01:20:00,0.0,1.93868,0.00042,387.025,0.047,0.9090,0.0043,139.998,45.000,31084.68400,1.95653,391.380,34.334,45.069,45.000,0.00,0.10,-272.74,-272.80,-12,497,-937,23.0,25.1,1.9,22.9,25.8,2.2,5.73,2.07,1.4,27.4
2015-08-31 01:21:00,0.0,1.93908,0.00046,387.047,0.051,0.9083,0.0048,139.999,45.000,31083.53505,1.95690,391.398,34.322,45.068,45.000,0.00,0.10,-272.74,-272.80,-13,497,-937,22.9,25.1,1.9,22.9,25.8,2.2,5.73,2.02,1.4,27.4
2015-08-31 01:22:00,0.0,1.93929,0.00048,387.159,0.041,0.8999,0.0056,139.998,45.000,31083.66225,1.95696,391.471,34.316,45.068,45.000,0.00,0.10,-272.74,-272.80,-12,497,-937,23.0,24.9,1.8,22.8,25.5,2.1,5.73,1.92,1.4,27.4
2015-08-31 01:23:00,0.0,1.93935,0.00037,387.112,0.027,0.9072,0.0035,139.999,45.000,31084.22413,1.95713,391.458,34.309,45.068,45.000,0.00,0.10,-272.74,-272.80,-13,497,-937,22.9,25.1,1.9,22.8,25.7,2.1,5.73,1.84,1.4,27.4
2015-08-31 01:24:00,0.0,1.93959,0.00036,387.143,0.031,0.9062,0.0027,139.999,45.000,31083.18903,1.95740,391.487,34.306,45.068,45.000,0.00,0.10,-272.74,-272.81,-13,497,-937,22.9,25.1,1.9,22.8,25.7,2.2,5.73,1.86,1.4,27.3
2015-08-31 01:25:00,0.0,1.93997,0.00037,387.149,0.060,0.9133,0.0046,140.000,45.000,31082.73549,1.95795,391.526,34.292,45.068,45.000,0.00,0.10,-272.75,-272.81,-13,497,-938,22.9,25.3,2.0,22.8,25.9,2.3,5.73,1.96,1.4,27.4
2015-08-31 01:26:00,0.0,1.93983,0.00031,387.223,0.033,0.9068,0.0030,139.996,45.000,31084.08715,1.95763,391.570,34.280,45.068,45.000,0.00,0.10,-272.74,-272.80,-13,497,-938,22.9,25.2,1.9,22.8,25.8,2.2,5.73,2.06,1.4,27.3
2015-08-31 01:27:00,0.0,1.94024,0.00046,387.200,0.037,0.9124,0.0032,139.996,45.000,31083.37221,1.95815,391.574,34.284,45.068,45.000,0.00,0.10,-272.75,-272.81,-13,497,-937,22.9,25.4,2.1,22.8,25.9,2.3,5.73,2.05,1.4,27.4
2015-08-31 01:28:00,0.0,1.94057,0.00039,387.196,0.046,0.9161,0.0039,139.999,45.000,31085.37791,1.95856,391.587,34.292,45.068,45.000,0.00,0.10,-272.75,-272.81,-13,497,-938,22.9,25.4,2.1,22.8,26.1,2.3,5.73,1.96,1.4,27.3
2015-08-31 01:29:00,0.0,1.94153,0.00034,387.403,0.088,0.9073,0.0052,140.000,45.000,31084.92561,1.95935,391.753,34.272,45.068,45.000,0.00,0.10,-272.74,-272.80,-13,497,-937,22.9,25.2,1.9,22.8,25.9,2.2,5.73,1.86,1.4,27.4
2015-08-31 01:30:00,0.0,1.94207,0.00048,387.486,0.029,0.9091,0.0047,140.001,45.000,31085.11874,1.95993,391.845,34.281,45.068,45.000,0.00,0.10,-272.75,-272.80,-12,498,-938,22.9,25.2,2.0,22.8,25.8,2.2,5.73,1.84,1.4,27.4
2015-08-31 01:31:00,0.0,1.94209,0.00040,387.460,0.025,0.9148,0.0024,139.998,45.000,31085.49651,1.96012,391.851,34.304,45.068,45.000,0.00,0.10,-272.75,-272.81,-12,497,-937,22.9,25.4,2.0,22.8,26.0,2.3,5.73,1.91,1.4,27.4
2015-08-31 01:32:00,0.0,1.94193,0.00040,387.441,0.048,0.9134,0.0045,139.998,45.000,31086.41730,1.95992,391.823,34.303,45.068,45.000,0.00,0.10,-272.75,-272.81,-12,497,-938,22.9,25.3,2.0,22.8,26.0,2.3,5.73,2.01,1.4,27.4
2015-08-31 01:33:00,0.0,1.94259,0.00034,387.482,0.030,0.9181,0.0044,139.999,45.000,31084.73856,1.96061,391.887,34.309,45.068,45.000,0.00,0.10,-272.74,-272.80,-12,497,-937,22.9,25.5,2.1,22.8,26.1,2.3,5.73,2.07,1.4,27.3
2015-08-31 01:34:00,0.0,1.94312,0.00040,387.479,0.042,0.9207,0.0030,140.000,45.000,31083.50602,1.96125,391.895,34.314,45.068,45.000,0.00,0.10,-272.74,-272.81,-12,497,-937,22.9,25.6,2.1,22.8,26.2,2.4,5.73,2.03,1.4,27.4
2015-08-31 01:35:00,0.0,1.94333,0.00040,387.576,0.043,0.9118,0.0040,140.000,45.000,31084.52944,1.96125,391.953,34.334,45.068,45.000,0.00,0.10,-272.74,-272.80,-13,497,-938,22.8,25.4,2.0,22.8,26.1,2.3,5.73,1.92,1.4,27.4
2015-08-31 01:36:00,0.0,1.94372,0.00033,387.652,0.051,0.9111,0.0043,139.998,45.000,31085.23279,1.96168,392.025,34.367,45.068,45.000,0.00,0.10,-272.73,-272.80,-13,497,-937,22.8,25.4,2.0,22.8,26.0,2.3,5.73,1.83,1.4,27.4
2015-08-31 01:37:00,0.0,1.94384,0.00045,387.688,0.022,0.9084,0.0033,140.000,45.000,31087.62614,1.96173,392.048,34.375,45.068,45.000,0.00,0.10,-272.74,-272.81,-13,497,-938,22.8,25.4,1.9,22.8,25.9,2.2,5.73,1.87,1.4,27.3
2015-08-31 01:38:00,0.0,1.94401,0.00033,387.712,0.027,0.9071,0.0043,139.997,45.000,31087.54349,1.96186,392.066,34.374,45.068,45.000,0.00,0.10,-272.75,-272.81,-13,497,-938,22.8,25.4,1.9,22.8,25.9,2.2,5.73,2.00,1.3,27.4
2015-08-31 01:39:00,0.0,1.94406,0.00046,387.710,0.038,0.9095,0.0027,140.000,45.000,31090.00509,1.96194,392.075,34.372,45.068,45.000,0.00,0.10,-272.74,-272.80,-13,497,-938,22.7,25.5,2.0,22.7,26.0,2.2,5.73,2.07,1.3,27.3
2015-08-31 01:40:00,0.0,1.94419,0.00029,387.738,0.051,0.9099,0.0047,140.000,45.000,31089.99654,1.96213,392.106,34.365,45.068,45.000,0.00,0.10,-272.74,-272.80,-12,498,-938,22.7,25.5,2.0,22.7,26.0,2.2,5.73,2.04,1.4,27.3
2015-08-31 01:41:00,0.0,1.94447,0.00041,387.716,0.026,0.9135,0.0019,140.000,45.000,31089.37721,1.96245,392.100,34.374,45.068,45.000,0.00,0.10,-272.74,-272.81,-12,497,-937,22.7,25.6,2.0,22.7,26.1,2.3,5.73,1.93,1.4,27.3
2015-08-31 01:42:00,0.0,1.94487,0.00039,387.725,0.042,0.9143,0.0040,139.997,45.000,31087.80105,1.96287,392.115,34.392,45.068,45.000,0.00,0.10,-272.74,-272.80,-12,497,-937,22.7,25.7,2.0,22.7,26.2,2.3,5.73,1.84,1.3,27.3
2015-08-31 01:43:00,0.0,1.94496,0.00030,387.734,0.045,0.9127,0.0050,140.000,45.000,31088.87155,1.96292,392.116,34.407,45.068,45.000,0.00,0.10,-272.74,-272.79,-12,497,-938,22.7,25.6,2.0,22.7,26.1,2.3,5.73,1.86,1.3,27.3
2015-08-31 01:44:00,0.0,1.94505,0.00040,387.730,0.033,0.9162,0.0034,139.997,45.000,31088.26711,1.96309,392.131,34.429,45.068,45.000,0.00,0.10,-272.75,-272.80,-12,497,-938,22.7,25.7,2.1,22.7,26.2,2.3,5.73,1.97,1.4,27.3
2015-08-31 01:45:00,0.0,1.94552,0.00037,387.818,0.041,0.9106,0.0042,139.998,45.000,31088.34458,1.96346,392.188,34.433,45.068,45.000,0.00,0.10,-272.75,-272.80,-12,497,-938,22.7,25.5,2.0,22.7,26.1,2.3,5.73,2.07,1.3,27.3
2015-08-31 01:46:00,0.0,1.94601,0.00048,387.818,0.028,0.9104,0.0036,139.998,45.000,31086.98149,1.96395,392.190,34.426,45.068,45.000,0.00,0.10,-272.74,-272.80,-13,497,-938,22.7,25.6,2.0,22.7,26.1,2.3,5.73,2.05,1.3,27.3